SCP
0 0 0 0 0 0 0 0 0 1 1 1 1 1 1 1 1 1 2 2 2 2 2 2 1 1 1 0 0 0 0 0 0 0 0 0 0 0 0 0 0 0 0
0 0 0 0 0 0 0 0 0 1 1 1 1 1 1 1 1 1 2 2 2 2 1 1 1 1 0 0 0 0 0 0 0 0 0 0 0 0 0 0 0 0 0
0 0 0 0 0 0 0 0 0 1 1 1 1 1 1 1 1 1 1 1 1 1 1 0 0 0 0 0 0 0 0 0 0 0 0 0 0 0 0 0 0 0 0
0 0 0 0 0 0 0 0 0 0 1 1 1 1 1 1 1 1 1 1 0 0 0 0 0 0 0 0 0 0 0 0 0 0 0 0 0 0 0 0 0 0 0
0 0 0 0 0 0 0 0 0 0 1 1 1 1 1 1 1 1 1 0 0 0 0 0 0 0 0 0 0 0 0 0 0 0 0 0 0 0 0 0 0 0 0
0 0 0 0 0 0 0 0 0 0 1 1 1 2 2 1 1 1 0 1 0 0 0 0 0 0 0 0 0 0 0 0 0 0 0 0 0 0 0 0 0 0 0
0 0 0 0 0 0 0 0 0 0 0 1 1 2 2 1 1 0 0 0 1 1 1 0 0 0 0 0 0 0 0 0 0 0 0 0 0 0 0 0 0 0 0
0 0 0 0 0 0 0 0 0 0 0 0 1 1 1 1 0 0 0 0 1 0 0 0 0 0 0 0 0 0 0 0 0 0 0 0 0 0 0 0 0 0 0
0 0 0 0 0 0 0 0 0 0 0 0 0 1 1 0 0 0 0 0 0 0 0 0 0 0 0 0 0 0 0 0 0 0 0 0 0 0 0 0 0 0 0
0 0 0 0 0 0 0 0 0 0 0 0 0 0 0 0 0 0 0 0 0 0 0 0 0 0 0 0 0 0 0 0 0 0 0 0 0 0 0 0 0 0 0
0 0 0 0 0 0 0 0 1 1 0 0 0 0 0 0 0 0 0 0 0 0 0 0 0 0 0 0 0 0 0 0 0 0 0 0 0 0 0 0 0 0 0
0 0 0 0 0 0 0 1 1 1 0 0 0 0 0 0 0 0 0 0 0 0 0 0 0 0 0 0 0 0 0 0 0 0 0 0 0 0 0 0 0 0 0
0 0 0 0 0 0 0 1 1 0 0 0 0 0 0 0 0 0 0 0 0 0 0 0 0 0 0 0 0 0 0 0 0 0 0 0 0 0 0 0 0 0 0
0 0 0 0 0 0 0 1 1 0 0 0 0 0 0 0 0 0 0 0 0 0 0 0 0 0 0 0 0 0 0 0 0 0 0 0 0 0 0 0 0 0 0
0 0 0 0 0 0 0 0 0 0 0 0 0 0 0 0 0 0 0 0 0 0 0 0 0 0 0 0 0 0 0 0 0 0 0 0 0 0 0 0 0 0 0
0 0 0 0 0 0 0 0 0 0 0 0 0 0 0 0 0 0 0 0 0 0 0 0 0 0 0 0 0 0 0 0 0 0 0 0 0 0 0 0 0 0 0
0 0 0 0 0 0 0 0 0 0 0 0 0 0 0 0 0 0 0 0 0 0 0 0 0 0 0 0 0 0 0 0 0 0 0 0 0 0 0 0 0 0 0
0 0 0 0 0 0 0 0 0 0 0 0 0 0 0 0 0 0 0 0 0 0 0 0 0 0 0 0 0 0 0 0 0 0 0 0 0 0 0 0 0 0 0
0 0 0 0 0 0 0 0 0 0 0 0 0 0 0 0 0 0 0 0 0 0 0 0 0 0 0 0 0 0 0 0 0 0 0 0 0 0 0 0 0 0 0
0 0 0 0 0 0 0 0 0 0 0 0 0 0 0 0 0 0 0 0 0 0 0 0 0 0 0 0 0 0 0 0 0 0 0 0 0 0 0 0 0 0 0
0 0 0 0 0 0 0 0 0 0 0 0 0 0 0 0 0 0 0 0 0 0 0 0 0 0 0 0 0 0 0 0 0 0 0 0 0 0 0 0 0 0 0
0 0 0 0 0 0 0 0 0 0 0 0 0 0 0 0 0 0 0 0 0 0 0 0 0 0 0 0 0 0 0 0 0 0 0 0 0 0 0 0 0 0 0
0 0 0 0 0 0 0 0 0 0 0 0 0 0 0 0 0 0 0 0 0 0 0 0 0 0 0 0 0 0 0 0 0 0 0 0 0 0 0 0 0 0 0
0 0 0 0 0 0 0 0 0 0 0 0 0 0 0 0 0 0 0 0 0 0 0 0 0 0 0 0 0 0 0 0 0 0 0 0 0 0 0 0 0 0 0
0 0 0 0 0 0 0 0 0 0 0 0 0 0 0 0 0 0 0 0 0 0 0 0 0 0 0 0 0 0 0 0 0 0 0 0 0 0 0 0 0 0 0
0 0 0 0 0 0 0 0 0 0 0 0 0 0 0 0 0 0 0 0 0 0 0 0 0 0 0 0 0 0 0 0 0 0 0 0 0 0 0 0 0 0 0
Wind_Speed
5 5 5 4 4 4 4 4 4 3 4 4 4 4 4 4 4 4 3 3 4 3 3 3 4 3 3 3 3 4 4 4 6 6 5 5 7 7 6 7 7 8 7
5 5 4 4 4 4 4 3 3 3 3 4 4 4 4 4 4 4 4 4 4 4 3 3 4 3 4 3 3 4 4 4 5 7 6 5 7 7 8 8 7 7 8
4 5 4 4 3 3 3 3 3 3 3 3 4 4 5 5 4 4 4 4 3 3 3 4 4 4 4 3 4 4 4 4 4 5 6 5 5 6 8 7 8 7 8
4 4 4 3 3 3 2 2 2 3 3 3 3 3 4 4 4 4 3 3 3 2 3 3 4 5 4 4 4 4 4 4 4 4 5 5 5 6 6 6 7 7 7
4 3 3 3 2 2 2 2 2 2 2 2 2 2 2 2 3 3 3 3 3 3 2 3 3 4 4 4 4 4 4 4 4 4 5 5 5 5 6 6 8 7 8
3 3 3 3 2 2 2 2 2 2 1 2 2 2 2 2 3 4 3 3 3 3 3 3 3 3 3 4 5 5 5 5 5 5 5 6 7 7 6 6 7 8 8
3 3 3 2 2 2 1 2 1 1 1 2 2 2 3 2 3 4 4 3 3 3 3 3 2 2 3 3 3 4 5 6 7 7 7 7 8 7 7 8 8 9 9
3 3 2 2 2 2 1 1 1 1 1 2 2 2 2 2 3 4 3 3 3 3 3 3 3 3 3 3 3 4 4 4 5 5 6 7 7 7 7 8 8 9 9
3 2 2 1 1 1 1 1 1 1 1 1 1 2 2 2 3 4 3 2 2 2 3 3 3 3 4 4 3 4 4 4 4 6 8 8 9 9 8 5 6 6 7
2 2 1 1 1 1 1 1 1 1 1 1 1 2 2 3 3 4 3 2 2 2 2 3 4 4 4 5 4 4 5 5 5 5 6 6 6 6 7 6 6 6 6
2 1 1 1 0 0 1 1 1 1 1 1 1 1 2 2 3 3 3 2 2 2 2 2 3 4 5 5 5 4 5 6 5 4 4 4 4 4 4 5 5 5 6
1 1 1 1 1 0 0 0 0 1 1 0 1 1 2 2 2 2 3 3 3 3 3 2 2 4 5 6 5 4 6 5 3 3 4 4 4 5 5 5 6 6 7
1 1 1 1 1 0 0 0 0 0 1 1 1 1 1 2 2 2 2 3 4 3 2 3 4 4 4 3 4 5 5 3 3 3 4 5 5 5 5 5 6 6 7
1 1 1 1 1 1 1 0 1 1 1 1 1 1 2 2 2 2 2 2 2 2 2 2 3 3 3 3 4 3 2 3 3 4 4 5 5 4 4 5 5 5 5
1 1 1 1 1 1 1 1 1 1 2 2 2 2 2 2 3 4 4 2 2 2 2 2 2 2 2 2 2 2 2 3 3 4 4 4 4 5 5 4 4 5 5
0 1 1 1 0 0 0 1 2 1 2 3 3 3 3 3 4 4 5 4 4 3 3 2 2 2 2 3 3 3 3 3 3 4 4 4 4 5 5 4 4 5 6
1 1 1 1 0 0 1 1 1 1 2 2 2 2 2 3 4 4 4 4 4 4 2 2 2 2 2 3 3 3 4 4 4 4 4 4 4 5 5 5 5 5 5
1 1 1 1 1 1 1 1 1 1 1 2 2 2 3 3 4 3 4 3 2 2 2 2 2 2 3 3 3 3 4 4 4 4 4 4 4 5 5 5 5 5 6
1 1 1 1 1 1 1 1 1 1 2 2 2 2 2 3 3 3 3 2 2 2 2 2 2 3 3 3 3 4 4 4 4 4 4 4 4 4 4 5 5 7 6
1 1 1 1 1 1 1 1 1 1 2 2 2 2 2 2 2 2 2 2 2 2 3 3 3 3 3 3 4 4 4 4 4 4 4 4 4 4 4 5 5 5 5
1 1 1 1 1 1 1 1 1 2 2 2 2 3 4 3 3 3 3 3 3 3 3 3 3 3 3 3 3 4 5 4 4 4 4 4 4 4 4 4 5 5 5
1 1 1 1 1 1 1 1 1 2 2 2 2 2 4 3 2 3 3 3 3 3 3 3 3 3 3 4 4 4 4 4 4 4 4 4 4 4 4 4 4 5 5
1 1 1 1 1 1 2 1 2 2 2 2 2 3 3 3 3 3 3 3 3 3 3 3 3 3 3 3 4 4 4 4 4 4 4 4 4 4 4 4 5 5 5
1 2 1 1 1 1 1 2 2 2 2 3 3 3 3 3 3 3 3 3 3 4 3 3 3 4 5 4 4 4 4 4 4 4 5 4 4 4 4 4 5 6 5
1 2 2 1 1 1 2 2 2 2 2 3 3 3 3 3 3 3 3 3 4 4 4 4 3 4 5 6 5 4 5 6 6 4 4 4 4 4 4 5 4 5 5
2 2 2 2 1 1 2 2 2 2 3 3 3 3 3 3 3 3 3 3 3 3 4 4 4 5 6 5 5 6 7 6 6 6 4 3 4 3 4 3 5 4 5
Wind_Direction
159 160 162 167 169 171 176 181 185 191 194 196 196 197 199 202 204 206 209 211 219 225 226 233 243 253 257 258 261 264 266 269 273 287 290 291 290 296 301 300 299 298 299
156 156 153 158 164 168 173 181 189 196 198 197 199 200 201 203 206 208 209 210 218 225 231 238 246 252 258 261 260 262 266 271 273 281 288 289 291 297 299 298 300 298 296
150 149 147 153 163 168 172 180 190 195 195 195 203 205 206 207 207 207 205 210 217 223 231 239 247 248 255 261 266 266 269 273 274 273 284 290 292 296 297 296 298 297 297
141 145 146 153 164 168 169 177 189 194 195 194 203 209 208 205 199 193 196 207 214 224 237 248 250 251 255 261 265 266 271 277 275 274 281 286 291 296 295 298 299 299 300
134 136 141 146 151 158 166 175 180 185 193 195 197 199 201 202 198 199 204 209 217 227 240 254 259 263 269 270 268 265 268 270 272 273 277 284 286 296 296 299 297 301 298
125 123 126 134 138 146 155 165 165 168 176 187 197 202 211 213 194 206 214 213 219 225 237 255 264 255 255 270 274 275 274 268 270 275 277 278 285 290 295 294 298 300 298
117 118 120 122 119 123 143 160 166 173 184 200 208 216 227 219 201 206 213 219 220 231 238 247 256 255 260 262 273 284 285 284 275 273 274 279 285 290 293 293 292 293 293
108 106 102 111 113 115 143 166 178 189 203 218 222 228 239 227 211 210 210 220 226 236 243 247 251 254 258 268 275 280 290 294 291 286 278 283 287 288 286 286 288 291 289
86 77 75 98 120 129 150 178 183 185 216 237 243 243 246 237 217 215 211 223 228 248 260 258 255 256 255 271 278 280 292 297 300 292 293 294 295 294 292 289 289 290 291
68 56 50 58 114 163 201 219 210 198 222 250 258 255 252 250 226 224 225 219 228 248 258 260 258 261 264 271 272 270 279 289 294 298 297 297 295 293 291 283 283 285 291
44 49 44 44 44 254 244 234 217 199 210 235 263 278 270 262 242 230 238 241 230 245 256 261 259 262 278 281 286 279 279 293 291 291 293 294 295 293 291 288 286 281 282
52 52 36 26 26 318 237 233 213 192 211 235 275 304 302 282 263 250 262 269 269 254 257 263 264 274 286 290 288 286 296 300 290 290 292 295 298 299 299 297 291 284 278
68 56 40 30 20 349 239 228 214 197 218 247 266 285 304 307 294 282 276 281 291 283 273 278 287 286 287 281 277 290 294 289 287 289 292 295 298 297 297 295 290 285 283
63 52 41 37 26 12 0 291 230 219 230 248 261 278 296 297 293 289 282 287 292 287 280 283 287 281 282 284 284 285 289 289 290 290 294 297 299 296 295 297 297 300 295
40 31 16 17 16 10 5 342 295 280 256 256 263 266 271 279 288 300 297 286 284 284 297 286 280 278 275 283 294 301 302 298 296 296 294 295 296 297 297 300 297 297 294
354 344 334 342 348 341 350 10 31 328 322 304 293 286 287 288 297 299 301 300 299 293 291 265 265 270 274 285 291 296 298 298 299 296 293 293 296 297 298 299 296 294 296
321 313 316 309 297 287 296 302 333 10 4 322 305 313 313 313 308 311 317 312 295 287 272 265 269 275 282 285 285 289 293 295 294 290 289 291 292 293 295 297 298 299 300
321 327 314 306 305 286 271 276 281 286 303 321 331 322 324 321 316 319 328 331 304 292 274 269 273 279 282 281 282 285 288 290 288 288 289 288 289 291 293 296 299 303 306
329 333 326 318 312 304 299 292 285 281 289 304 314 323 335 332 325 321 321 307 287 285 283 278 278 278 277 278 280 281 282 284 286 288 288 290 291 291 293 298 301 304 303
323 342 316 301 302 303 293 279 278 282 288 292 300 312 322 321 310 311 309 303 292 284 281 278 279 278 277 276 278 279 281 283 287 288 292 293 294 293 294 297 299 302 302
318 316 326 308 295 291 284 278 278 278 280 291 300 305 309 307 298 297 299 298 294 287 281 280 279 278 276 274 275 276 279 283 287 289 291 293 295 295 295 294 296 298 301
313 306 308 307 301 295 298 292 285 284 286 290 300 307 311 307 296 293 295 295 296 290 281 275 274 275 275 274 275 278 279 281 285 287 289 291 292 292 292 292 295 299 303
315 310 310 310 307 305 310 300 291 286 290 296 302 303 301 299 296 295 296 297 298 295 286 277 275 277 278 277 275 272 272 275 280 283 285 285 286 286 288 291 294 301 306
326 321 317 316 319 309 305 304 302 301 301 304 303 299 297 298 298 300 299 298 300 297 293 287 281 280 283 285 278 272 271 277 280 274 274 275 281 284 287 290 295 302 303
342 334 326 319 313 306 304 303 304 305 304 300 298 299 299 300 298 297 298 298 300 297 298 295 288 285 283 283 282 280 278 278 280 280 275 273 276 280 285 289 295 301 304
357 345 334 326 318 309 304 302 304 305 302 302 302 303 303 302 300 300 300 299 301 303 302 300 296 293 291 286 284 287 288 284 281 282 279 274 277 284 290 291 296 299 303